When you browse on this site, cookies collect data to enhance your experience and personalize the content and advertising you see.
Visit our Privacy Policy to learn more. By continuing to use the site, you agree to this use of cookies and data.
  • Em Portugal
  • Lista de países
  • Para 7 dias
  • Temperatura da água
  • Mapas de satélite
  • Mapa do tempo
  • Widgets de tempo
  • user-avatar
    Iniciar Sessão

    Previsão horária em Malinowka

    Hoje, 18 Fevereiro, Segunda-feira

    Tempo Temperatura Precipitação Vento Pressão Humidade
    00:00 +3°C° 0 mm 2 m/s 752 mmHg 97%
    01:00 +3°C° 0 mm 2 m/s 752 mmHg 97%
    02:00 +4°C° 0 mm 1 m/s 752 mmHg 97%
    03:00 +4°C° 0 mm 1 m/s 752 mmHg 97%
    04:00 +4°C° 0 mm 1 m/s 752 mmHg 97%
    05:00 +3°C° 0 mm 1 m/s 752 mmHg 97%
    06:00 +3°C° 0 mm 1 m/s 752 mmHg 97%
    07:00 +3°C° 0 mm 1 m/s 752 mmHg 96%
    08:00 +2°C° 0 mm 0 m/s 752 mmHg 96%
    09:00 +3°C° 0 mm 0 m/s 753 mmHg 93%
    10:00 +4°C° 0 mm 0 m/s 753 mmHg 90%
    11:00 +5°C° 0 mm 0 m/s 753 mmHg 86%
    12:00 +6°C° 0 mm 1 m/s 753 mmHg 83%
    13:00 +6°C° 0 mm 2 m/s 752 mmHg 79%
    14:00 +7°C° 0 mm 2 m/s 752 mmHg 76%
    15:00 +6°C° 0 mm 2 m/s 752 mmHg 77%
    16:00 +5°C° 0 mm 3 m/s 752 mmHg 79%
    17:00 +5°C° 0 mm 3 m/s 751 mmHg 81%
    18:00 +4°C° 0 mm 3 m/s 751 mmHg 84%
    19:00 +3°C° 0 mm 3 m/s 751 mmHg 88%
    20:00 +2°C° 0 mm 3 m/s 751 mmHg 91%
    21:00 +2°C° 0 mm 3 m/s 750 mmHg 92%
    22:00 +2°C° 0 mm 3 m/s 750 mmHg 93%
    23:00 0°C° 0 mm 4 m/s 750 mmHg 94%

    Amanhã, 19 Fevereiro, Terça-feira

    Tempo Temperatura Precipitação Vento Pressão Humidade
    00:00 0°C° 0 mm 4 m/s 750 mmHg 94%
    01:00 0°C° 0 mm 4 m/s 749 mmHg 94%
    02:00 0°C° 0 mm 4 m/s 749 mmHg 94%
    03:00 0°C° 0 mm 4 m/s 748 mmHg 94%
    04:00 0°C° 0 mm 4 m/s 748 mmHg 95%
    05:00 0°C° 0 mm 4 m/s 747 mmHg 95%
    06:00 -1°C° 0 mm 4 m/s 747 mmHg 95%
    07:00 -1°C° 0 mm 4 m/s 746 mmHg 94%
    08:00 -1°C° 0 mm 4 m/s 746 mmHg 94%
    09:00 0°C° 0 mm 5 m/s 745 mmHg 88%
    10:00 +1°C° 0 mm 5 m/s 745 mmHg 83%
    11:00 +2°C° 0 mm 5 m/s 744 mmHg 77%
    12:00 +3°C° 0 mm 5 m/s 744 mmHg 72%
    13:00 +4°C° 0 mm 6 m/s 743 mmHg 68%
    14:00 +7°C° 0 mm 6 m/s 743 mmHg 63%
    15:00 +5°C° 0 mm 6 m/s 743 mmHg 64%
    16:00 +6°C° 0 mm 5 m/s 742 mmHg 64%
    17:00 +6°C° 0 mm 5 m/s 742 mmHg 65%
    18:00 +5°C° 0 mm 5 m/s 742 mmHg 70%
    19:00 +4°C° 0 mm 4 m/s 742 mmHg 76%
    20:00 +4°C° 0 mm 4 m/s 742 mmHg 81%
    21:00 +4°C° 0.3 mm 4 m/s 742 mmHg 83%
    22:00 +3°C° 0.3 mm 5 m/s 742 mmHg 86%
    23:00 +3°C° 0.3 mm 5 m/s 742 mmHg 88%

    Depois de amanhã, 20 Fevereiro, Quarta-feira

    Tempo Temperatura Precipitação Vento Pressão Humidade
    00:00 +2°C° 0 mm 5 m/s 742 mmHg 89%
    01:00 +2°C° 0 mm 5 m/s 742 mmHg 89%
    02:00 +1°C° 0 mm 5 m/s 742 mmHg 90%
    03:00 +1°C° 0 mm 5 m/s 742 mmHg 89%
    04:00 +1°C° 0 mm 6 m/s 742 mmHg 88%
    05:00 +2°C° 0 mm 6 m/s 742 mmHg 88%
    06:00 +1°C° 0.1 mm 6 m/s 742 mmHg 87%
    07:00 +1°C° 0.1 mm 6 m/s 742 mmHg 86%
    08:00 +1°C° 0.1 mm 6 m/s 743 mmHg 85%
    09:00 +1°C° 0.1 mm 6 m/s 743 mmHg 82%
    10:00 +2°C° 0.1 mm 7 m/s 743 mmHg 80%
    11:00 +2°C° 0.1 mm 7 m/s 743 mmHg 77%
    12:00 +2°C° 0.1 mm 7 m/s 743 mmHg 77%
    13:00 +2°C° 0.1 mm 7 m/s 743 mmHg 76%
    14:00 +2°C° 0.1 mm 7 m/s 744 mmHg 76%
    15:00 +2°C° 0 mm 7 m/s 744 mmHg 77%
    16:00 +2°C° 0 mm 7 m/s 744 mmHg 78%
    17:00 +2°C° 0 mm 7 m/s 744 mmHg 80%
    18:00 +2°C° 0 mm 6 m/s 745 mmHg 81%
    19:00 +2°C° 0 mm 6 m/s 745 mmHg 83%
    20:00 +2°C° 0 mm 6 m/s 746 mmHg 84%
    21:00 +1°C° 0 mm 6 m/s 746 mmHg 85%
    22:00 +1°C° 0 mm 5 m/s 746 mmHg 86%
    23:00 +1°C° 0 mm 5 m/s 747 mmHg 87%

    21 Fevereiro, Quinta-feira

    Tempo Temperatura Precipitação Vento Pressão Humidade
    00:00 +1°C° 0 mm 4 m/s 747 mmHg 88%
    01:00 0°C° 0 mm 4 m/s 747 mmHg 88%
    02:00 +1°C° 0 mm 3 m/s 748 mmHg 89%
    03:00 0°C° 0 mm 3 m/s 747 mmHg 89%
    04:00 +1°C° 0 mm 2 m/s 747 mmHg 90%
    05:00 +1°C° 0 mm 2 m/s 747 mmHg 91%
    06:00 +1°C° 0.2 mm 2 m/s 747 mmHg 91%
    07:00 +2°C° 0.2 mm 1 m/s 747 mmHg 91%
    08:00 +2°C° 0.2 mm 1 m/s 747 mmHg 92%
    09:00 +2°C° 0.2 mm 1 m/s 747 mmHg 89%
    10:00 +1°C° 0.2 mm 2 m/s 748 mmHg 86%
    11:00 +1°C° 0.2 mm 2 m/s 748 mmHg 83%
    12:00 +1°C° 0.1 mm 2 m/s 748 mmHg 79%
    13:00 0°C° 0.1 mm 3 m/s 748 mmHg 75%
    14:00 0°C° 0.1 mm 3 m/s 748 mmHg 72%
    15:00 0°C° 0 mm 3 m/s 749 mmHg 70%
    16:00 0°C° 0 mm 3 m/s 749 mmHg 68%
    17:00 0°C° 0 mm 3 m/s 749 mmHg 66%
    18:00 -1°C° 0 mm 3 m/s 750 mmHg 63%
    19:00 -1°C° 0 mm 3 m/s 751 mmHg 61%
    20:00 -3°C° 0 mm 4 m/s 752 mmHg 58%
    21:00 -2°C° 0 mm 3 m/s 753 mmHg 59%
    22:00 -4°C° 0 mm 3 m/s 753 mmHg 60%
    23:00 -4°C° 0 mm 3 m/s 754 mmHg 61%

    22 Fevereiro, Sexta-feira

    Tempo Temperatura Precipitação Vento Pressão Humidade
    00:00 -4°C° 0 mm 2 m/s 755 mmHg 62%
    01:00 -4°C° 0 mm 2 m/s 755 mmHg 63%
    02:00 -4°C° 0 mm 2 m/s 756 mmHg 65%
    03:00 -5°C° 0 mm 3 m/s 757 mmHg 64%
    04:00 -5°C° 0 mm 3 m/s 758 mmHg 64%
    05:00 -6°C° 0 mm 3 m/s 758 mmHg 64%
    06:00 -6°C° 0 mm 3 m/s 759 mmHg 63%
    07:00 -6°C° 0 mm 3 m/s 760 mmHg 63%
    08:00 -7°C° 0 mm 4 m/s 761 mmHg 62%
    09:00 -7°C° 0 mm 4 m/s 761 mmHg 57%
    10:00 -5°C° 0 mm 4 m/s 762 mmHg 51%
    11:00 -4°C° 0 mm 4 m/s 763 mmHg 46%
    12:00 -4°C° 0 mm 3 m/s 763 mmHg 42%
    13:00 -2°C° 0 mm 3 m/s 764 mmHg 39%
    14:00 -1°C° 0 mm 3 m/s 764 mmHg 35%
    15:00 -1°C° 0 mm 2 m/s 764 mmHg 37%
    16:00 -2°C° 0 mm 2 m/s 765 mmHg 39%
    17:00 0°C° 0 mm 1 m/s 765 mmHg 41%
    18:00 0°C° 0 mm 1 m/s 765 mmHg 43%
    19:00 -1°C° 0 mm 1 m/s 765 mmHg 46%
    20:00 -2°C° 0 mm 1 m/s 766 mmHg 48%
    21:00 -3°C° 0 mm 2 m/s 766 mmHg 48%
    22:00 -3°C° 0 mm 2 m/s 766 mmHg 47%
    23:00 -3°C° 0 mm 2 m/s 766 mmHg 47%

    23 Fevereiro, Sábado

    Tempo Temperatura Precipitação Vento Pressão Humidade
    00:00 -4°C° 0 mm 3 m/s 766 mmHg 47%
    01:00 -4°C° 0 mm 3 m/s 765 mmHg 47%
    02:00 -4°C° 0 mm 4 m/s 765 mmHg 47%
    03:00 -4°C° 0 mm 4 m/s 765 mmHg 46%
    04:00 -5°C° 0 mm 5 m/s 764 mmHg 45%
    05:00 -4°C° 0 mm 5 m/s 764 mmHg 43%
    06:00 -4°C° 0 mm 5 m/s 763 mmHg 45%
    07:00 -4°C° 0 mm 5 m/s 763 mmHg 47%
    08:00 -4°C° 0 mm 6 m/s 762 mmHg 49%
    09:00 -3°C° 0 mm 6 m/s 762 mmHg 52%
    10:00 -2°C° 0 mm 7 m/s 761 mmHg 54%
    11:00 -1°C° 0 mm 7 m/s 760 mmHg 57%
    12:00 0°C° 0 mm 7 m/s 760 mmHg 64%
    13:00 0°C° 0 mm 7 m/s 759 mmHg 72%
    14:00 +2°C° 0 mm 6 m/s 759 mmHg 79%
    15:00 +2°C° 0 mm 6 m/s 758 mmHg 83%
    16:00 +2°C° 0 mm 6 m/s 758 mmHg 87%
    17:00 +2°C° 0 mm 6 m/s 757 mmHg 92%
    18:00 +2°C° 0 mm 6 m/s 757 mmHg 92%
    19:00 +2°C° 0 mm 6 m/s 757 mmHg 93%
    20:00 +2°C° 0 mm 6 m/s 757 mmHg 93%
    21:00 +1°C° 0 mm 6 m/s 757 mmHg 94%
    22:00 +1°C° 0 mm 5 m/s 757 mmHg 94%
    23:00 +1°C° 0 mm 5 m/s 757 mmHg 95%
    Mostrar mais